Regional Weather Roundup
Issued by NWS Bismarck, ND

Home | Current Version | Previous Version | Text Only | Print | Product List | Glossary On
Versions: 1 2 3 4 5 6 7 8 9 10 11 12 13 14 15 16 17 18 19 20 21 22 23 24 25 26 27 28 29 30 31 32 33 34 35 36 37 38 39 40 41 42 43 44 45 46 47 48 49 50
294
ASUS43 KBIS 020010
RWRBIS

NWR BROADCAST TEXT
NATIONAL WEATHER SERVICE BISMARCK ND
700 PM CDT SUN MAY 01 2016

NOTE: "FAIR" INDICATES FEW OR NO CLOUDS BELOW 12,000 FEET WITH NO
SIGNIFICANT WEATHER AND/OR OBSTRUCTIONS TO VISIBILITY.


CITY           SKY/WX    TMP DP  RH WIND       PRES   REMARKS
WILLISTON      SUNNY     68  25  19 CALM      30.17F
MINOT          SUNNY     69  22  16 CALM      30.14F
MINOT AFB      SUNNY     64  24  21 NW1       30.13F
BISMARCK       SUNNY     64  29  26 VRB7      30.19F
DICKINSON      MOSUNNY   59  29  31 NW6       30.17F
GARRISON         N/A     63  22  20 S8        30.16F
HETTINGER ARPT SUNNY     62  25  24 N9        30.20F
JAMESTOWN      SUNNY     63  26  24 NW6       30.16S
CARRINGTON     FAIR      63  21  20 N5G15     30.18F
OAKES            N/A    N/A N/A N/A MISG        N/A
STANLEY        FAIR      64  23  20 N6G12     30.18F
$$

CITY           SKY/WX    TMP DP  RH WIND       PRES   REMARKS
GRAND FORKS    SUNNY     66  27  23 NW6       30.14F
GRAND FORKS AF SUNNY     64  25  22 E5        30.14F
DEVILS LAKE    SUNNY     63  24  22 NW6       30.15F
FARGO          SUNNY     67  27  22 N7        30.13F
GRAFTON        FAIR      66  27  22 CALM      30.16S
GWINNER        FAIR      64  30  27 N3        30.16S
LANGDON        FAIR      64  25  22 VRB5      30.14F
$$

CITY           SKY/WX    TMP DP  RH WIND       PRES   REMARKS
ABERDEEN       SUNNY     63  31  30 N10       30.17F
MOBRIDGE       SUNNY     64  32  30 NW6       30.16F
BUFFALO          N/A     61  26  26 N6        30.15F
RAPID CITY     SUNNY     57  29  34 N9        30.21F
GLASGOW        SUNNY     65  32  29 VRB5      30.19F
SIDNEY         SUNNY     64  28  25 NW8       30.18F
WOLF POINT     SUNNY     68  32  26 W12       30.18F
GLENDIVE       SUNNY     63  28  27 NW5       30.22F
MILES CITY     SUNNY     62  29  28 W6        30.22F
BAKER          SUNNY     61  28  28 N7        30.22F
$$

CITY           SKY/WX    TMP DP  RH WIND       PRES   REMARKS
BILLINGS       MOSUNNY   59  28  30 SE7       30.21F
GREAT FALLS    SUNNY     63  32  31 N8        30.19F
REGINA         PTSUNNY   68  32  26 W17G26    30.09F
ESTEVAN        PTSUNNY   68  25  19 SW7       30.11F
$$





USA.gov is the U.S. government's official web portal to all federal, state and local government web resources and services.